EUTELSAT HOT BIRD 13C

Last updated on Jan. 24, 2021, 6:18 a.m. UTC

1 33459U 08065A   21023.85637030  .00000100  00000-0  00000-0 0  9994
2 33459   0.0698  80.5024 0002746 247.5916 116.5609  1.00273097 27591
UTC
Height (km)
Latitude
Longitude
Inclination
Orbital Period
UTC large
Height (km)
Speed (km/s)
/
Latitude / Longitude
Inclination (degrees)
Orbital Period (minutes)
Azimuth
Elevation
Range (km)
Doppler Factor
iOS Compass Heading
iOS Angle

Next 30 passes for location: Hong Kong

Rise time Rise Azimuth (degrees) Set time Set Azimuth (degrees) Duration Max altitude (degrees)

No matching passes for this satellites